Weather History for Ozark, AL

Change the Weather History Date:

Thursday, January 17, 2013

  Actual Average Record
Temperature  
Mean Temperature 47 °F -  
Max Temperature 57 °F 58 °F 75 °F (1999)
Min Temperature 37 °F 36 °F 21 °F (1997)
Degree Days  
Heating Degree Days 18    
Moisture  
Dew Point 41 °F    
Average Humidity 89    
Maximum Humidity 100    
Minimum Humidity 74    
Precipitation  
Precipitation 0.02 in - - ()
Sea Level Pressure  
Sea Level Pressure 30.03 in    
Wind  
Wind Speed 11 mph (West)    
Max Wind Speed 23 mph    
Max Gust Speed 33 mph    
Visibility 9 miles    
Events Rain    
Averages and records for this station are not official NWS values.
T = Trace of Precipitation, MM = Missing Value Source: NWS Daily Summary

Daily Weather History Graph

Daily Weather History Graph

Search for Another Location

Airport:

Trip Planner

Search our weather history database for the weather conditions in past years. The results will help you decide how hot, cold, wet, or windy it might be!

Date:

Astronomy

Jan. 17, 2013 Rise Set
Actual Time 6:41 AM CST 5:04 PM CST
Civil Twilight 6:15 AM CST 5:30 PM CST
Nautical Twilight 5:45 AM CST 6:00 PM CST
Astronomical Twilight 5:16 AM CST 6:29 PM CST
Moon 10:16 AM CST (1/17) 11:25 PM CST (1/17)
Length of Visible Light 11h 15m
Length of Day
10h 23m
Waxing Crescent, 38% of the Moon is Illuminated
Jan 17
Waxing Crescent
Jan 18
First Quarter
Jan 26
Full
Feb 3
Last Quarter
Feb 10
New

Hourly Weather History & Observations

Time (CST) Temp. Windchill Dew Point Humidity Pressure Visibility Wind Dir Wind Speed Gust Speed Precip Events Conditions
12:09 AM 55.4 °F - 55.4 °F 100% 29.93 in 10.0 mi Calm Calm - N/A   Overcast
12:31 AM 57.2 °F - 55.4 °F 94% 29.93 in 10.0 mi Calm Calm - N/A   Overcast
12:39 AM 57.2 °F - 55.4 °F 94% 29.94 in 10.0 mi WSW 5.8 mph - N/A   Overcast
12:55 AM 56.3 °F - 55.8 °F 98% 29.94 in 10.0 mi SW 3.5 mph - N/A   Overcast
1:19 AM 55.4 °F - 55.4 °F 100% 29.94 in 9.0 mi West 6.9 mph - N/A   Overcast
1:33 AM 55.4 °F - 55.4 °F 100% 29.93 in 10.0 mi West 5.8 mph - N/A   Overcast
1:36 AM 55.4 °F - 55.4 °F 100% 29.93 in 10.0 mi West 8.1 mph - N/A Rain Light Rain
1:53 AM 55.4 °F - 53.6 °F 94% 29.94 in 2.5 mi West 11.5 mph - N/A   Overcast
1:55 AM 54.5 °F - 54.0 °F 98% 29.94 in 2.5 mi West 11.5 mph - 0.01 in   Overcast
1:56 AM 53.6 °F - 53.6 °F 100% 29.94 in 2.5 mi West 12.7 mph - N/A Rain Light Rain
1:58 AM 53.6 °F - 53.6 °F 100% 29.94 in 3.0 mi West 13.8 mph - N/A Rain Light Rain
2:14 AM 53.6 °F - 53.6 °F 100% 29.94 in 4.0 mi West 10.4 mph - N/A   Overcast
2:18 AM 53.6 °F - 51.8 °F 94% 29.94 in 4.0 mi West 10.4 mph - N/A   Overcast
2:21 AM 53.6 °F - 51.8 °F 94% 29.94 in 4.0 mi West 11.5 mph - N/A   Light Drizzle
2:55 AM 50.0 °F - 49.3 °F 97% 29.95 in 7.0 mi West 12.7 mph - 0.00 in   Overcast
3:06 AM 50.0 °F - 48.2 °F 94% 29.95 in 8.0 mi West 11.5 mph - N/A   Light Drizzle
3:15 AM 50.0 °F - 48.2 °F 94% 29.94 in 7.0 mi West 6.9 mph - N/A   Overcast
3:52 AM 48.2 °F - 48.2 °F 100% 29.94 in 10.0 mi WSW 10.4 mph - N/A   Overcast
3:54 AM 48.2 °F - 48.2 °F 100% 29.94 in 10.0 mi WSW 10.4 mph - N/A   Overcast
3:55 AM 48.7 °F - 47.8 °F 97% 29.94 in 10.0 mi SW 10.4 mph - 0.00 in   Overcast
4:05 AM 48.2 °F - 48.2 °F 100% 29.94 in 10.0 mi WSW 11.5 mph - N/A   Overcast
4:33 AM 48.2 °F - 46.4 °F 93% 29.95 in 10.0 mi WSW 11.5 mph - N/A   Overcast
4:35 AM 48.2 °F - 46.4 °F 93% 29.95 in 10.0 mi WSW 12.7 mph - N/A   Overcast
4:55 AM 47.5 °F - 46.8 °F 97% 29.96 in 10.0 mi WSW 12.7 mph - N/A   Overcast
5:18 AM 48.2 °F - 46.4 °F 93% 29.96 in 10.0 mi WSW 10.4 mph - N/A   Overcast
5:30 AM 46.4 °F 39.8 °F 46.4 °F 100% 29.98 in 10.0 mi SW 16.1 mph 23.0 mph N/A   Overcast
5:40 AM 46.4 °F 40.4 °F 46.4 °F 100% 29.98 in 6.0 mi WSW 13.8 mph 23.0 mph N/A Rain Light Rain
5:54 AM 46.4 °F 40.4 °F 44.6 °F 93% 29.98 in 7.0 mi WSW 13.8 mph - N/A   Light Drizzle
5:55 AM 45.9 °F 40.0 °F 44.8 °F 96% 29.98 in 8.0 mi WSW 12.7 mph - 0.00 in   Light Drizzle
5:59 AM 46.4 °F 40.1 °F 44.6 °F 93% 29.98 in 10.0 mi WSW 15.0 mph - N/A   Overcast
6:03 AM 46.4 °F 39.8 °F 44.6 °F 93% 29.99 in 10.0 mi WSW 16.1 mph - N/A   Overcast
6:24 AM 44.6 °F 38.1 °F 42.8 °F 93% 29.99 in 10.0 mi West 13.8 mph 21.9 mph N/A   Overcast
6:42 AM 44.6 °F 39.2 °F 42.8 °F 93% 30.00 in 10.0 mi West 10.4 mph 20.7 mph N/A   Overcast
6:45 AM 44.6 °F 37.2 °F 42.8 °F 93% 30.00 in 10.0 mi WSW 17.3 mph 21.9 mph N/A Rain Light Rain
6:55 AM 43.7 °F 37.3 °F 41.9 °F 93% 30.00 in 10.0 mi WSW 12.7 mph - 0.00 in   Light Drizzle
6:57 AM 42.8 °F 37.0 °F 41.0 °F 93% 30.00 in 10.0 mi WSW 10.4 mph - N/A   Overcast
7:02 AM 42.8 °F 36.6 °F 41.0 °F 93% 30.00 in 10.0 mi WSW 11.5 mph - N/A   Overcast
7:14 AM 42.8 °F 35.8 °F 41.0 °F 93% 30.01 in 10.0 mi WSW 13.8 mph 19.6 mph N/A   Overcast
7:39 AM 42.8 °F 37.0 °F 41.0 °F 93% 30.01 in 10.0 mi WSW 10.4 mph - N/A   Overcast
7:44 AM 42.8 °F 37.0 °F 41.0 °F 93% 30.02 in 10.0 mi WSW 10.4 mph - N/A   Light Drizzle
7:55 AM 43.2 °F 37.0 °F 41.4 °F 93% 30.02 in 10.0 mi SW 11.5 mph - 0.00 in   Overcast
8:00 AM 42.8 °F 37.5 °F 41.0 °F 93% 30.01 in 10.0 mi WSW 9.2 mph - N/A   Overcast
8:08 AM 42.8 °F 36.2 °F 41.0 °F 93% 30.02 in 10.0 mi WSW 12.7 mph 21.9 mph N/A   Light Drizzle
8:26 AM 42.8 °F 36.2 °F 41.0 °F 93% 30.03 in 10.0 mi West 12.7 mph - N/A   Light Drizzle
8:53 AM 41.0 °F 33.9 °F 39.2 °F 93% 30.04 in 10.0 mi WSW 12.7 mph 18.4 mph N/A   Overcast
8:55 AM 41.7 °F 33.7 °F 39.6 °F 92% 30.04 in 10.0 mi WSW 16.1 mph - 0.00 in   Overcast
9:48 AM 41.0 °F 33.5 °F 37.4 °F 87% 30.05 in 10.0 mi WSW 13.8 mph - N/A   Light Drizzle
9:55 AM 40.6 °F 33.0 °F 37.9 °F 90% 30.05 in 10.0 mi WSW 13.8 mph 20.7 mph 0.00 in   Light Drizzle
10:04 AM 41.0 °F 32.5 °F 37.4 °F 87% 30.05 in 8.0 mi WSW 17.3 mph - N/A Rain Light Rain
10:11 AM 41.0 °F 32.5 °F 37.4 °F 87% 30.05 in 10.0 mi SW 17.3 mph 21.9 mph N/A   Overcast
10:13 AM 41.0 °F 32.5 °F 37.4 °F 87% 30.05 in 10.0 mi SW 17.3 mph 21.9 mph N/A   Overcast
10:15 AM 41.0 °F 32.8 °F 37.4 °F 87% 30.05 in 10.0 mi WSW 16.1 mph 21.9 mph N/A   Overcast
10:16 AM 41.0 °F 32.8 °F 37.4 °F 87% 30.05 in 10.0 mi WSW 16.1 mph 21.9 mph N/A   Overcast
10:40 AM 42.8 °F 36.2 °F 37.4 °F 81% 30.04 in 10.0 mi West 12.7 mph 24.2 mph N/A   Overcast
10:53 AM 42.8 °F 33.8 °F 35.6 °F 76% 30.04 in 10.0 mi WSW 21.9 mph 28.8 mph N/A   Overcast
10:55 AM 41.9 °F 33.4 °F 36.1 °F 80% 30.04 in 10.0 mi West 18.4 mph 28.8 mph 0.01 in Rain Light Rain
10:58 AM 41.0 °F 32.5 °F 35.6 °F 81% 30.04 in 10.0 mi West 17.3 mph 28.8 mph N/A Rain Light Rain
10:59 AM 41.0 °F 32.5 °F 35.6 °F 81% 30.04 in 10.0 mi West 17.3 mph 28.8 mph N/A Rain Light Rain
11:12 AM 41.0 °F 32.2 °F 37.4 °F 87% 30.04 in 10.0 mi WSW 18.4 mph - N/A   Mostly Cloudy
11:15 AM 41.0 °F 32.5 °F 37.4 °F 87% 30.04 in 10.0 mi WSW 17.3 mph 21.9 mph N/A   Mostly Cloudy
11:16 AM 41.0 °F 32.5 °F 37.4 °F 87% 30.04 in 10.0 mi WSW 17.3 mph 25.3 mph N/A   Mostly Cloudy
11:36 AM 41.0 °F 31.9 °F 35.6 °F 81% 30.04 in 10.0 mi West 19.6 mph 25.3 mph N/A   Light Drizzle
11:55 AM 39.7 °F 31.2 °F 36.1 °F 87% 30.04 in 10.0 mi WSW 16.1 mph 24.2 mph 0.00 in Rain Light Rain
12:06 PM 41.0 °F 33.1 °F 37.4 °F 87% 30.03 in 10.0 mi WSW 15.0 mph 23.0 mph N/A   Light Drizzle
12:13 PM 41.0 °F 32.2 °F 35.6 °F 81% 30.04 in 10.0 mi WSW 18.4 mph 23.0 mph N/A Rain Light Rain
12:16 PM 39.2 °F 30.5 °F 35.6 °F 87% 30.03 in 10.0 mi West 16.1 mph 23.0 mph N/A Rain Light Rain
12:35 PM 39.2 °F 29.3 °F 35.6 °F 87% 30.04 in 10.0 mi West 20.7 mph 32.2 mph N/A Rain Light Rain
12:37 PM 39.2 °F 28.7 °F 35.6 °F 87% 30.05 in 10.0 mi West 23.0 mph 29.9 mph N/A   Overcast
12:46 PM 39.2 °F 29.8 °F 33.8 °F 81% 30.04 in 10.0 mi West 18.4 mph 29.9 mph N/A   Light Drizzle
12:55 PM 39.2 °F 30.5 °F 33.3 °F 79% 30.04 in 10.0 mi West 16.1 mph 25.3 mph 0.00 in   Overcast
1:34 PM 39.2 °F 32.0 °F 32.0 °F 75% 30.04 in 10.0 mi West 11.5 mph 20.7 mph N/A   Overcast
1:37 PM 39.2 °F 30.8 °F 32.0 °F 75% 30.05 in 10.0 mi West 15.0 mph 20.7 mph N/A   Overcast
1:45 PM 39.2 °F 31.2 °F 32.0 °F 75% 30.04 in 10.0 mi West 13.8 mph 24.2 mph N/A Rain Light Rain
1:55 PM 38.5 °F 29.6 °F 33.1 °F 81% 30.06 in 10.0 mi West 16.1 mph 23.0 mph 0.00 in   Light Drizzle
2:18 PM 37.4 °F 27.8 °F 33.8 °F 87% 30.06 in 10.0 mi West 17.3 mph 25.3 mph N/A   Light Drizzle
2:19 PM 37.4 °F 28.9 °F 33.8 °F 87% 30.06 in 10.0 mi West 13.8 mph 25.3 mph N/A   Light Drizzle
2:28 PM 37.4 °F 27.5 °F 33.8 °F 87% 30.06 in 10.0 mi West 18.4 mph 23.0 mph N/A   Light Drizzle
2:32 PM 37.4 °F 28.5 °F 33.8 °F 87% 30.06 in 10.0 mi West 15.0 mph 23.0 mph N/A   Light Drizzle
2:36 PM 37.4 °F 28.5 °F 32.0 °F 81% 30.06 in 10.0 mi West 15.0 mph 24.2 mph N/A   Overcast
2:55 PM 38.5 °F 28.9 °F 32.0 °F 78% 30.07 in 10.0 mi WNW 18.4 mph 23.0 mph 0.00 in   Overcast
3:55 PM 40.3 °F 31.6 °F 32.9 °F 75% 30.10 in 10.0 mi WNW 17.3 mph 24.2 mph N/A   Overcast
4:55 PM 41.2 °F 33.0 °F 33.6 °F 74% 30.13 in 10.0 mi WNW 16.1 mph 33.4 mph N/A   Overcast
5:55 PM 41.5 °F 33.2 °F 34.2 °F 75% 30.18 in 10.0 mi NW 17.3 mph 25.3 mph N/A   Overcast
6:55 PM 41.7 °F 33.7 °F 34.2 °F 75% 30.22 in 10.0 mi NW 16.1 mph 25.3 mph N/A   Overcast
7:36 PM 41.0 °F 33.1 °F 33.8 °F 76% 30.23 in 10.0 mi NW 15.0 mph 21.9 mph N/A   Mostly Cloudy
7:55 PM 41.5 °F 35.0 °F 33.8 °F 74% 30.23 in 10.0 mi NW 11.5 mph - N/A   Mostly Cloudy
8:55 PM 40.5 °F 33.6 °F 34.2 °F 78% 30.24 in 10.0 mi NW 11.5 mph - N/A   Partly Cloudy
9:55 PM 40.6 °F 32.7 °F 34.2 °F 78% 30.24 in 10.0 mi NNW 15.0 mph - N/A   Clear
10:55 PM 41.2 °F 33.7 °F 34.2 °F 76% 30.25 in 10.0 mi NNW 13.8 mph 23.0 mph N/A   Clear
11:55 PM 40.8 °F 32.9 °F 34.0 °F 77% 30.27 in 10.0 mi North 15.0 mph - N/A   Clear